This is the latest recevied weather packets stored in our database for station/object HB9TJM-8. If no packets are shown the sender has not sent any weather packets the latest 10 day(s).
| Time | Temp. | Humidity | Pressure | Rain* | Wind** | Luminosity | Snow |
|---|---|---|---|---|---|---|---|
| 1777538800 | 9.44° C | 57% | 1020.7 hPa | 0 mm | - | 630 W/m² | - |
| 1777538185 | 8.89° C | 56% | 1021.1 hPa | 0 mm | - | 609 W/m² | - |
| 1777537878 | 8.33° C | 59% | 1020.9 hPa | 0 mm | - | 602 W/m² | - |
| 1777537877 | 8.33° C | 59% | 1020.9 hPa | 0 mm | - | 602 W/m² | - |
| 1777537570 | 8.89° C | 58% | 1020.8 hPa | 0 mm | - | 589 W/m² | - |
| 1777537263 | 8.89° C | 58% | 1020.8 hPa | 0 mm | - | 577 W/m² | - |
| 1777537263 | 8.89° C | 58% | 1020.8 hPa | 0 mm | - | 577 W/m² | - |
| 1777536955 | 8.33° C | 57% | 1020.7 hPa | 0 mm | - | 559 W/m² | - |
| 1777536955 | 8.33° C | 57% | 1020.7 hPa | 0 mm | - | 559 W/m² | - |
| 1777536648 | 8.89° C | 57% | 1020.9 hPa | 0 mm | - | 544 W/m² | - |
| 1777536648 | 8.89° C | 57% | 1020.9 hPa | 0 mm | - | 544 W/m² | - |
| 1777536340 | 8.89° C | 60% | 1021.1 hPa | 0 mm | - | 534 W/m² | - |
| 1777536033 | 8.33° C | 60% | 1021 hPa | 0 mm | - | 522 W/m² | - |
| 1777535726 | 8.33° C | 59% | 1020.9 hPa | 0 mm | - | 505 W/m² | - |
| 1777535419 | 8.33° C | 59% | 1020.7 hPa | 0 mm | - | 494 W/m² | - |
| 1777535419 | 8.33° C | 59% | 1020.7 hPa | 0 mm | - | 494 W/m² | - |
| 1777535111 | 8.33° C | 58% | 1021 hPa | 0 mm | - | 285 W/m² | - |
| 1777534804 | 8.33° C | 58% | 1021 hPa | 0 mm | - | 470 W/m² | - |
| 1777534804 | 8.33° C | 58% | 1021 hPa | 0 mm | - | 470 W/m² | - |
| 1777534496 | 8.33° C | 59% | 1020.8 hPa | 0 mm | - | 451 W/m² | - |
| 1777534189 | 7.78° C | 60% | 1021 hPa | 0 mm | - | 442 W/m² | - |
| 1777534189 | 7.78° C | 60% | 1021 hPa | 0 mm | - | 442 W/m² | - |
| 1777533574 | 7.78° C | 58% | 1020.9 hPa | 0 mm | - | 398 W/m² | - |
| 1777533574 | 7.78° C | 58% | 1020.9 hPa | 0 mm | - | 398 W/m² | - |
| 1777533267 | 7.78° C | 57% | 1020.8 hPa | 0 mm | - | 381 W/m² | - |
* Rain latest hour (hover to see other rain measurements)
** Current wind speed in m/s (hover to see current wind gust speed)